Regional Weather Roundup
Issued by NWS

Home | Current Version | Previous Version | Graphics & Text | Print | Product List | Glossary On
Versions: 1 2 3 4 5 6 7 8 9 10 11 12 13 14 15 16 17 18 19 20 21 22 23 24 25 26 27 28 29 30 31 32 33 34 35 36 37 38 39 40 41 42 43 44 45 46 47 48 49 50
690
ASUS43 KIND 291959
RWRIN

WEATHER ROUNDUP FOR INDIANA
NATIONAL WEATHER SERVICE INDIANAPOLIS IN
400 PM EDT FRI JUL 29 2016

NOTE: "FAIR" INDICATES FEW OR NO CLOUDS BELOW 12,000 FEET WITH NO
SIGNIFICANT WEATHER AND/OR OBSTRUCTIONS TO VISIBILITY.

* - STATION DOES NOT REPORT WEATHER SUCH AS PRECIPITATION OR FOG.

+ - STATION NOT QUALITY CONTROLLED BY THE NATIONAL WEATHER SERVICE.
    USE DATA WITH CAUTION...ESPECIALLY DEWPOINT AND RELATIVE
    HUMIDITY OBSERVATIONS.

INZ001>003-010>013-019-020-292100-
NORTHWEST INDIANA

CITY           SKY/WX    TMP DP  RH WIND       PRES   REMARKS
GARY /AIRPORT/ PTSUNNY   77  75  94 CALM      29.92R FOG
KNOX *+        CLOUDY    72  64  78 NW6       29.92R VSB 3/4
MONTICELLO +   LGT RAIN  77  68  73 CALM      29.88F
RENSSELAER +   PTSUNNY   79  72  78 CALM      29.89F

$$

LMZ046-743>745-292100-
SOUTHERN LAKE MICHIGAN

STATION/POSITION TIME  TEMP    WIND        PRES    WAVE
                       AIR SEA DIR/SP/G            HT
                 (UTC) (F)     (DEG/KT/KT) (MB)    (FT)
BURNS HARBOR     1900   75      40/ 12     1012.5F
MICHIGAN CITY    1900   74      90/ 12/ 14   N/A
5NW MICH CITY    1900   76 77   40/ 12/ 16   N/A     2

$$

INZ004-005-014>016-021>024-292100-
NORTH CENTRAL INDIANA

CITY           SKY/WX    TMP DP  RH WIND       PRES   REMARKS
ELKHART        PTSUNNY   81  64  57 E9        29.92S
GOSHEN         CLOUDY    79  65  62 NE7       29.91F
SOUTH BEND     LGT RAIN  77  66  68 NE6       29.92S
WARSAW +       PTSUNNY   77  70  78 E8        29.90F

$$

INZ006>009-017-018-025>027-292100-
NORTHEAST INDIANA

CITY           SKY/WX    TMP DP  RH WIND       PRES   REMARKS
ANGOLA *+        N/A     79  72  78 NE8       29.92F
FORT WAYNE     CLOUDY    88  65  46 N5        29.88F

$$

INZ028-029-035-036-043>045-051>053-292100-
WEST CENTRAL INDIANA

CITY           SKY/WX    TMP DP  RH WIND       PRES   REMARKS
CRAWFORDSVL +  PTSUNNY   81  73  77 W8        29.90R
GREENCASTLE +  CLOUDY    81  75  83 S5        29.91S
LAFAYETTE      SUNNY     84  73  69 W9        29.88S
TERRE HAUTE    CLOUDY    80  70  71 S9        29.90F

$$

INZ030>032-037>040-046>048-054>057-064-065-292100-
CENTRAL INDIANA

CITY           SKY/WX    TMP DP  RH WIND       PRES   REMARKS
ANDERSON       MOSUNNY   73  70  88 SW6       29.92F
COLUMBUS       PTSUNNY   75  72  88 CALM      29.90F
INDIANAPOLIS   PTSUNNY   84  71  65 SW14      29.89F
-EAGLE CREEK   MOSUNNY   87  69  54 MISG      29.88F
KOKOMO *+      CLOUDY    77  66  69 S10       29.89F
SHELBYVILLE    CLOUDY    83  69  62 S9        29.90S
ZIONSVILLE +   MOSUNNY   82  72  73 CALM      29.90S

$$

INZ033-034-041-042-049-050-058-059-292100-
EAST CENTRAL INDIANA

CITY           SKY/WX    TMP DP  RH WIND       PRES   REMARKS
MUNCIE         CLOUDY    78  69  73 SW3       29.90F

$$

INZ060-061-067>069-081>083-085>088-292100-
SOUTHWEST INDIANA

CITY           SKY/WX    TMP DP  RH WIND       PRES   REMARKS
EVANSVILLE     PTSUNNY   86  73  65 SW6       29.89F
HUNTINGBURG *+ PTSUNNY   86  75  70 SW12      29.90F HX  95

$$

INZ062-063-066-070>080-084-089>092-292100-
SOUTH CENTRAL AND SOUTHEAST INDIANA

CITY           SKY/WX    TMP DP  RH WIND       PRES   REMARKS
BLOOMINGTON    CLOUDY    84  72  67 SW5       29.91F
MADISON *+     MOSUNNY   86  68  54 SW5       29.92F
SEYMOUR +      MOSUNNY   88  72  58 CALM      29.89F

$$





USA.gov is the U.S. government's official web portal to all federal, state and local government web resources and services.